Satellite: IO-26
Catalog number: 22826
Epoch time:      09070.91433509
Element set:    0917
Inclination:      098.4175 deg
RA of node:       028.2465 deg
Eccentricity:    0.0008699
Arg of perigee:   181.4435 deg
Mean anomaly:     178.6719 deg
Mean motion:   14.29511487 rev/day
Decay rate:        1.0e-07 rev/day^2
Epoch rev:           80611
Checksum:              323

Satellite: GO-32
Catalog number: 25397
Epoch time:      09070.90911461
Element set:    0842
Inclination:      098.3352 deg
RA of node:       098.4201 deg
Eccentricity:    0.0001465
Arg of perigee:   137.9232 deg
Mean anomaly:     222.2062 deg
Mean motion:   14.23155688 rev/day
Decay rate:       -2.1e-07 rev/day^2
Epoch rev:           55429
Checksum:              288

Satellite: NO-44
Catalog number: 26931
Epoch time:      09071.17615754
Element set:     118
Inclination:      067.0550 deg
RA of node:       314.2719 deg
Eccentricity:    0.0005183
Arg of perigee:   265.5189 deg
Mean anomaly:     094.5336 deg
Mean motion:   14.29550646 rev/day
Decay rate:       2.37e-06 rev/day^2
Epoch rev:           38871
Checksum:              316

Satellite: SO-50
Catalog number: 27607
Epoch time:      09070.79456488
Element set:    0834
Inclination:      064.5611 deg
RA of node:       320.8881 deg
Eccentricity:    0.0076777
Arg of perigee:   226.9170 deg
Mean anomaly:     132.5498 deg
Mean motion:   14.71418596 rev/day
Decay rate:       -9.6e-07 rev/day^2
Epoch rev:           33434
Checksum:              345

Satellite: CO-55
Catalog number: 27844
Epoch time:      09070.58639166
Element set:     530
Inclination:      098.7161 deg
RA of node:       081.1221 deg
Eccentricity:    0.0010814
Arg of perigee:   066.9822 deg
Mean anomaly:     293.2493 deg
Mean motion:   14.20626009 rev/day
Decay rate:        3.8e-07 rev/day^2
Epoch rev:           29540
Checksum:              301

Satellite: CO-57
Catalog number: 27848
Epoch time:      09070.55037388
Element set:     477
Inclination:      098.7170 deg
RA of node:       080.1495 deg
Eccentricity:    0.0010620
Arg of perigee:   069.0402 deg
Mean anomaly:     291.1917 deg
Mean motion:   14.20429909 rev/day
Decay rate:        3.7e-07 rev/day^2
Epoch rev:           29536
Checksum:              319

Satellite: AO-51
Catalog number: 28375
Epoch time:      09070.58975028
Element set:    0337
Inclination:      098.0563 deg
RA of node:       085.8684 deg
Eccentricity:    0.0085147
Arg of perigee:   061.2857 deg
Mean anomaly:     299.6858 deg
Mean motion:   14.40635232 rev/day
Decay rate:        4.0e-08 rev/day^2
Epoch rev:           24690
Checksum:              342

Satellite: CO-56
Catalog number: 28941
Epoch time:      09071.47273898
Element set:     893
Inclination:      098.1282 deg
RA of node:       228.6184 deg
Eccentricity:    0.0112726
Arg of perigee:   135.7236 deg
Mean anomaly:     225.3189 deg
Mean motion:   15.74222420 rev/day
Decay rate:     6.0040e-04 rev/day^2
Epoch rev:           17198
Checksum:              330

Satellite: CP3
Catalog number: 31128
Epoch time:      09070.71301768
Element set:    0578
Inclination:      098.0002 deg
RA of node:       128.3175 deg
Eccentricity:    0.0102021
Arg of perigee:   226.6913 deg
Mean anomaly:     132.5763 deg
Mean motion:   14.52024425 rev/day
Decay rate:       -4.7e-07 rev/day^2
Epoch rev:           10075
Checksum:              259

Satellite: CP4
Catalog number: 31132
Epoch time:      09070.71341140
Element set:    0562
Inclination:      098.0042 deg
RA of node:       131.8272 deg
Eccentricity:    0.0084890
Arg of perigee:   216.2340 deg
Mean anomaly:     143.3071 deg
Mean motion:   14.55188340 rev/day
Decay rate:       -6.1e-07 rev/day^2
Epoch rev:           10085
Checksum:              248

Satellite: CO-65
Catalog number: 32785
Epoch time:      09070.66266215
Element set:    0320
Inclination:      097.9578 deg
RA of node:       135.3886 deg
Eccentricity:    0.0014837
Arg of perigee:   352.7518 deg
Mean anomaly:     007.3477 deg
Mean motion:   14.81455017 rev/day
Decay rate:       -6.4e-07 rev/day^2
Epoch rev:           04700
Checksum:              321

/EX
SB KEPS @ AMSAT  $ORB09071.W
Orbital Elements  09071.WEATHER

HR AMSAT ORBITAL ELEMENTS FOR WEATHER SATELLITES
FROM WA5QGD FORT WORTH,TX March 12, 2009
Send Subscribe/unsubscribe to KEPS at 
http://www.amsat.org/mailman/listinfo/keps
BID: ORB09071.W
TO ALL RADIO AMATEURS BT

Satellite: NOAA-10
Catalog number: 16969
Epoch time:      09070.93130429
Element set:    0532
Inclination:      098.7014 deg
RA of node:       098.0662 deg
Eccentricity:    0.0012959
Arg of perigee:   118.5484 deg
Mean anomaly:     241.6994 deg
Mean motion:   14.27381955 rev/day
Decay rate:        5.6e-07 rev/day^2
Epoch rev:           16963
Checksum:              333

Satellite: NOAA-11
Catalog number: 19531
Epoch time:      09070.76038007
Element set:    0544
Inclination:      098.7834 deg
RA of node:       162.2228 deg
Eccentricity:    0.0012063
Arg of perigee:   029.4970 deg
Mean anomaly:     330.6869 deg
Mean motion:   14.14889058 rev/day
Decay rate:      -2.46e-06 rev/day^2
Epoch rev:           05574
Checksum:              313

